Home > Weather > Grand Prairie > Past weeks

Flag for USA Past Weather in Grand Prairie, Texas, USA — Yesterday and Last 2 Weeks

Now
99 °F

Sunny.


Feels Like: 103 °F
Forecast: 82 / 101 °F
Wind: 9 mph from Southeast

Location: Grand Prairie Municipal Airport

Current Time: Jul 23, 2016 at 2:22:56 PM

Latest Report: Jul 23, 2016 at 1:50 PM


Visibility: 10 mi

Pressure: 29.97 "Hg

Humidity: 35%

Dew Point: 66 °F

Location of Grand PrairieLocation

Past Weather in Grand Prairie — Graph

°F

Grand Prairie Temperature Yesterday

Maximum temperature yesterday: 99 °F (at 3:50 PM)
Minimum temperature yesterday: 78 °F (at 6:35 AM)
Average temperature yesterday: 87 °F

High & Low Weather Summary for the Past Weeks

 TemperatureHumidityPressure
High99 °F (Jul 22, 3:50 PM)100% (Jul 10, 5:55 AM)30.22 "Hg (Jul 10, 5:55 AM)
Low72 °F (Jul 15, 9:50 AM)29% (Jul 22, 4:50 PM)29.82 "Hg (Jul 11, 6:50 PM)
Average85 °F60%30.01 "Hg
* Reported Jul 8 12:50 PM — Jul 23 12:50 PM, Grand Prairie, Weather by CustomWeather, © 2016

Note: Actual official high and low records may vary slightly from our data, if they occured in-between our weather recording intervals... More about our weather records

Advertising

Grand Prairie Weather History for the Previous 24 Hours

Scroll right to see more
 ConditionsComfort  
Time TempWeatherWind HumidityBarometerVisibility
12:50 PM
Sat, Jul 23
93 °FSunny.7 mph44%29.98 "Hg10 mi
11:50 AM93 °FSunny.8 mph41%30.00 "Hg10 mi
10:50 AM93 °FSunny.10 mph44%30.01 "Hg10 mi
9:50 AM88 °FSunny.6 mph55%30.01 "Hg10 mi
8:50 AM84 °FSunny.8 mph62%30.02 "Hg10 mi
7:50 AM81 °FSunny.8 mph70%30.00 "Hg10 mi
6:50 AM81 °FClear.5 mph66%29.99 "Hg10 mi
6:35 AM80 °FClear.5 mph67%29.99 "Hg10 mi
6:15 AM81 °FClear.5 mph65%29.98 "Hg10 mi
5:55 AM81 °FClear.6 mph64%29.98 "Hg10 mi
5:35 AM82 °FClear.6 mph62%29.98 "Hg10 mi
5:15 AM82 °FClear.6 mph61%29.98 "Hg10 mi
4:55 AM82 °FClear.6 mph59%29.98 "Hg10 mi
4:35 AM82 °FClear.5 mph62%29.98 "Hg10 mi
4:15 AM82 °FClear.No wind61%29.98 "Hg10 mi
3:55 AM82 °FClear.No wind60%29.98 "Hg10 mi
3:35 AM83 °FClear.No wind60%29.98 "Hg10 mi
3:15 AM83 °FClear.3 mph57%29.98 "Hg10 mi
2:55 AM84 °FClear.No wind58%29.98 "Hg10 mi
2:35 AM84 °FClear.3 mph58%29.98 "Hg10 mi
2:15 AM85 °FClear.No wind56%29.98 "Hg10 mi
1:55 AM85 °FClear.No wind57%29.98 "Hg10 mi
1:35 AM85 °FClear.No wind57%29.99 "Hg10 mi
1:15 AM85 °FClear.3 mph58%29.99 "Hg10 mi
12:55 AM86 °FClear.3 mph58%30.00 "Hg10 mi
12:35 AM86 °FClear.3 mph57%30.00 "Hg10 mi
12:20 AM87 °FClear.5 mph57%30.00 "Hg10 mi
11:55 PM
Fri, Jul 22
87 °FClear.5 mph55%30.00 "Hg10 mi
11:35 PM88 °FClear.5 mph52%30.00 "Hg10 mi
11:15 PM88 °FClear.5 mph50%30.00 "Hg10 mi
10:55 PM89 °FClear.6 mph49%29.99 "Hg10 mi
10:35 PM88 °FClear.5 mph50%29.99 "Hg10 mi
10:15 PM89 °FClear.No wind48%29.98 "Hg10 mi
9:55 PM90 °FClear.5 mph46%29.98 "Hg10 mi
9:15 PM91 °FSunny.5 mph43%29.98 "Hg10 mi
8:55 PM92 °FSunny.3 mph42%29.98 "Hg10 mi
8:15 PM94 °FSunny.5 mph36%29.98 "Hg10 mi
7:50 PM95 °FSunny.7 mph34%29.98 "Hg10 mi
6:50 PM97 °FSunny.7 mph30%29.98 "Hg10 mi
5:50 PM99 °FSunny.8 mph29%29.98 "Hg10 mi
4:50 PM99 °FSunny.7 mph29%30.00 "Hg10 mi
3:50 PM99 °FSunny.10 mph31%30.02 "Hg10 mi
2:50 PM97 °FSunny.7 mph30%30.05 "Hg10 mi
Weather by CustomWeather, © 2016

See weather overviewHow to use our weather pages